Time,TemperatureF,DewpointF,PressureIn,WindDirection,WindDirectionDegrees,WindSpeedMPH,WindSpeedGustMPH,Humidity,HourlyPrecipIn,Conditions,Clouds,dailyrainin,SoftwareType,DateUTC
2013-04-14 00:00:00,63.9,61.5,28.39,East,85,0.0,1.0,92,0.00,00:00,,0.00,WeatherDisplay:WD co,2013-04-13 21:00:00,
2013-04-14 00:05:00,63.9,61.5,28.40,NNE,33,0.0,1.0,92,0.00,00:05,,0.00,WeatherDisplay:WD co,2013-04-13 21:05:00,
2013-04-14 00:10:00,63.9,61.5,28.39,NNW,346,0.0,2.0,92,0.00,00:10,,0.00,WeatherDisplay:WD co,2013-04-13 21:10:00,
2013-04-14 00:20:00,63.9,61.5,28.40,East,84,0.0,2.0,92,0.00,00:20,,0.00,WeatherDisplay:WD co,2013-04-13 21:20:00,
2013-04-14 00:25:00,63.9,61.5,28.40,ENE,57,0.0,2.0,92,0.00,00:25,,0.00,WeatherDisplay:WD co,2013-04-13 21:25:00,
2013-04-14 00:30:00,64.0,61.7,28.40,East,92,1.0,3.0,92,0.00,00:30,,0.00,WeatherDisplay:WD co,2013-04-13 21:30:00,
2013-04-14 00:35:00,64.0,61.7,28.40,South,187,0.0,0.0,92,0.00,00:35,,0.00,WeatherDisplay:WD co,2013-04-13 21:35:00,
2013-04-14 00:40:00,64.2,61.5,28.40,WSW,240,0.0,2.0,91,0.00,00:40,,0.00,WeatherDisplay:WD co,2013-04-13 21:40:00,
2013-04-14 00:45:00,64.4,61.7,28.40,West,270,0.0,2.0,91,0.00,00:45,,0.00,WeatherDisplay:WD co,2013-04-13 21:45:00,
2013-04-14 00:50:00,64.4,60.8,28.39,WSW,246,2.0,5.0,88,0.00,00:50,,0.00,WeatherDisplay:WD co,2013-04-13 21:50:00,
2013-04-14 00:55:00,65.1,60.2,28.39,SSW,199,1.0,4.0,84,0.00,00:55,,0.00,WeatherDisplay:WD co,2013-04-13 21:55:00,
2013-04-14 01:00:00,65.7,59.7,28.39,North,10,1.0,4.0,81,0.00,01:00,,0.00,WeatherDisplay:WD co,2013-04-13 22:00:00,
2013-04-14 01:05:00,66.0,59.3,28.39,NE,48,1.0,4.0,79,0.00,01:05,,0.00,WeatherDisplay:WD co,2013-04-13 22:05:00,
2013-04-14 01:10:00,66.2,59.5,28.40,NE,37,0.0,3.0,79,0.00,01:10,,0.00,WeatherDisplay:WD co,2013-04-13 22:10:00,
2013-04-14 01:20:00,66.0,59.3,28.39,South,188,0.0,3.0,79,0.00,01:20,,0.00,WeatherDisplay:WD co,2013-04-13 22:20:00,
2013-04-14 01:25:00,66.0,59.3,28.39,SSW,203,0.0,2.0,79,0.00,01:25,,0.00,WeatherDisplay:WD co,2013-04-13 22:25:00,
2013-04-14 01:35:00,65.8,59.1,28.39,SW,228,0.0,1.0,79,0.00,01:35,,0.00,WeatherDisplay:WD co,2013-04-13 22:35:00,
2013-04-14 01:40:00,65.8,58.8,28.40,WSW,245,1.0,3.0,78,0.00,01:40,,0.00,WeatherDisplay:WD co,2013-04-13 22:40:00,
2013-04-14 01:45:00,65.8,58.8,28.39,SW,216,0.0,2.0,78,0.00,01:45,,0.00,WeatherDisplay:WD co,2013-04-13 22:45:00,
2013-04-14 01:50:00,65.8,58.8,28.39,ESE,113,0.0,2.0,78,0.00,01:50,,0.00,WeatherDisplay:WD co,2013-04-13 22:50:00,
2013-04-14 01:55:00,65.8,58.8,28.39,ESE,120,0.0,2.0,78,0.00,01:55,,0.00,WeatherDisplay:WD co,2013-04-13 22:55:00,
2013-04-14 02:00:00,65.8,59.1,28.39,South,184,1.0,3.0,79,0.00,02:00,,0.00,WeatherDisplay:WD co,2013-04-13 23:00:00,
2013-04-14 02:05:00,65.8,59.1,28.39,SE,140,0.0,4.0,79,0.00,02:05,,0.00,WeatherDisplay:WD co,2013-04-13 23:05:00,
2013-04-14 02:10:00,65.7,59.0,28.39,NNE,23,0.0,3.0,79,0.00,02:10,,0.00,WeatherDisplay:WD co,2013-04-13 23:10:00,
2013-04-14 02:20:00,65.7,59.3,28.39,NNE,29,0.0,6.0,80,0.00,02:20,,0.00,WeatherDisplay:WD co,2013-04-13 23:20:00,
2013-04-14 02:30:00,65.5,59.1,28.39,SSW,207,0.0,2.0,80,0.00,02:30,,0.00,WeatherDisplay:WD co,2013-04-13 23:30:00,
2013-04-14 02:35:00,65.5,59.1,28.39,SSW,194,0.0,2.0,80,0.00,02:35,,0.00,WeatherDisplay:WD co,2013-04-13 23:35:00,
2013-04-14 02:40:00,65.5,59.1,28.38,South,172,0.0,4.0,80,0.00,02:40,,0.00,WeatherDisplay:WD co,2013-04-13 23:40:00,
2013-04-14 02:45:00,65.5,59.1,28.38,SSW,200,0.0,5.0,80,0.00,02:45,,0.00,WeatherDisplay:WD co,2013-04-13 23:45:00,
2013-04-14 02:50:00,65.5,58.8,28.38,SW,215,0.0,2.0,79,0.00,02:50,,0.00,WeatherDisplay:WD co,2013-04-13 23:50:00,
2013-04-14 02:55:00,65.5,58.8,28.38,SW,219,0.0,3.0,79,0.00,02:55,,0.00,WeatherDisplay:WD co,2013-04-13 23:55:00,
2013-04-14 03:00:00,65.7,59.3,28.38,SW,233,0.0,5.0,80,0.00,03:00,,0.00,WeatherDisplay:WD co,2013-04-14 00:00:00,
2013-04-14 03:10:00,65.5,59.1,28.38,WSW,248,1.0,3.0,80,0.00,03:10,,0.00,WeatherDisplay:WD co,2013-04-14 00:10:00,
2013-04-14 03:15:00,65.3,59.0,28.38,West,275,0.0,2.0,80,0.00,03:15,,0.00,WeatherDisplay:WD co,2013-04-14 00:15:00,
2013-04-14 03:20:00,65.1,59.1,28.38,WSW,254,0.0,1.0,81,0.00,03:20,,0.00,WeatherDisplay:WD co,2013-04-14 00:20:00,
2013-04-14 03:25:00,64.9,59.0,28.38,SSE,162,0.0,2.0,81,0.00,03:25,,0.00,WeatherDisplay:WD co,2013-04-14 00:25:00,
2013-04-14 03:30:00,64.8,58.8,28.38,West,270,0.0,2.0,81,0.00,03:30,,0.00,WeatherDisplay:WD co,2013-04-14 00:30:00,
2013-04-14 03:35:00,64.6,59.0,28.38,SSW,207,1.0,2.0,82,0.00,03:35,,0.00,WeatherDisplay:WD co,2013-04-14 00:35:00,
2013-04-14 03:40:00,64.6,59.0,28.38,East,85,0.0,2.0,82,0.00,03:40,,0.00,WeatherDisplay:WD co,2013-04-14 00:40:00,
2013-04-14 03:45:00,64.6,59.0,28.38,NE,47,0.0,3.0,82,0.00,03:45,,0.00,WeatherDisplay:WD co,2013-04-14 00:45:00,
2013-04-14 03:50:00,64.4,58.8,28.39,West,262,0.0,2.0,82,0.00,03:50,,0.00,WeatherDisplay:WD co,2013-04-14 00:50:00,
2013-04-14 03:55:00,64.2,58.9,28.38,NE,35,1.0,3.0,83,0.00,03:55,,0.00,WeatherDisplay:WD co,2013-04-14 00:55:00,
2013-04-14 04:00:00,64.2,58.9,28.38,NNE,23,0.0,2.0,83,0.00,04:00,,0.00,WeatherDisplay:WD co,2013-04-14 01:00:00,
2013-04-14 04:05:00,64.2,58.9,28.38,NE,39,0.0,4.0,83,0.00,04:05,,0.00,WeatherDisplay:WD co,2013-04-14 01:05:00,
2013-04-14 04:10:00,64.2,58.9,28.38,NE,39,0.0,4.0,83,0.00,04:05,,0.00,WeatherDisplay:WD co,2013-04-14 01:10:00,
2013-04-14 06:00:00,62.6,58.4,28.38,NE,42,1.0,2.0,86,0.00,06:00,,0.00,WeatherDisplay:WD co,2013-04-14 03:00:00,
2013-04-14 06:10:00,62.8,58.5,28.39,NE,49,0.0,2.0,86,0.00,06:10,,0.00,WeatherDisplay:WD co,2013-04-14 03:10:00,
2013-04-14 06:15:00,62.6,58.4,28.39,NE,46,0.0,2.0,86,0.00,06:15,,0.00,WeatherDisplay:WD co,2013-04-14 03:15:00,
2013-04-14 06:20:00,62.4,58.5,28.39,NNE,25,0.0,2.0,87,0.00,06:20,,0.00,WeatherDisplay:WD co,2013-04-14 03:20:00,
2013-04-14 06:25:00,62.2,58.3,28.39,NE,36,0.0,2.0,87,0.00,06:25,,0.00,WeatherDisplay:WD co,2013-04-14 03:25:00,
2013-04-14 06:30:00,62.2,58.3,28.39,NNE,14,0.0,0.0,87,0.00,06:30,,0.00,WeatherDisplay:WD co,2013-04-14 03:30:00,
2013-04-14 06:35:00,62.1,58.1,28.39,NNE,14,0.0,0.0,87,0.00,06:35,,0.00,WeatherDisplay:WD co,2013-04-14 03:35:00,
2013-04-14 06:40:00,61.9,58.0,28.39,North,5,0.0,1.0,87,0.00,06:40,,0.00,WeatherDisplay:WD co,2013-04-14 03:40:00,
2013-04-14 06:45:00,61.7,57.8,28.40,NNW,341,0.0,2.0,87,0.00,06:45,,0.00,WeatherDisplay:WD co,2013-04-14 03:45:00,
2013-04-14 06:50:00,61.7,57.8,28.39,NE,54,0.0,1.0,87,0.00,06:50,,0.00,WeatherDisplay:WD co,2013-04-14 03:50:00,
2013-04-14 07:00:00,61.5,57.9,28.40,South,191,0.0,0.0,88,0.00,07:00,,0.00,WeatherDisplay:WD co,2013-04-14 04:00:00,
2013-04-14 07:05:00,61.5,57.9,28.40,SW,225,0.0,0.0,88,0.00,07:05,,0.00,WeatherDisplay:WD co,2013-04-14 04:05:00,
2013-04-14 07:10:00,61.5,57.9,28.40,SSW,211,0.0,2.0,88,0.00,07:10,,0.00,WeatherDisplay:WD co,2013-04-14 04:10:00,
2013-04-14 07:15:00,61.9,58.3,28.40,South,170,0.0,1.0,88,0.00,07:15,,0.00,WeatherDisplay:WD co,2013-04-14 04:15:00,
2013-04-14 07:20:00,62.1,58.5,28.40,SSE,154,0.0,2.0,88,0.00,07:20,,0.00,WeatherDisplay:WD co,2013-04-14 04:20:00,
2013-04-14 07:30:00,62.6,59.0,28.41,SSE,162,0.0,2.0,88,0.00,07:30,,0.00,WeatherDisplay:WD co,2013-04-14 04:30:00,
2013-04-14 07:35:00,63.1,58.9,28.40,East,101,0.0,2.0,86,0.00,07:35,,0.00,WeatherDisplay:WD co,2013-04-14 04:35:00,
2013-04-14 07:40:00,63.5,58.9,28.40,NE,52,0.0,2.0,85,0.00,07:40,,0.00,WeatherDisplay:WD co,2013-04-14 04:40:00,
2013-04-14 07:50:00,64.4,59.5,28.40,SSW,195,0.0,1.0,84,0.00,07:50,,0.00,WeatherDisplay:WD co,2013-04-14 04:50:00,
2013-04-14 07:55:00,64.6,59.3,28.41,SW,221,0.0,0.0,83,0.00,07:55,,0.00,WeatherDisplay:WD co,2013-04-14 04:55:00,
2013-04-14 08:00:00,64.9,59.7,28.41,SW,225,0.0,0.0,83,0.00,08:00,,0.00,WeatherDisplay:WD co,2013-04-14 05:00:00,
2013-04-14 08:10:00,65.5,60.2,28.41,SSW,211,0.0,1.0,83,0.00,08:10,,0.00,WeatherDisplay:WD co,2013-04-14 05:10:00,
2013-04-14 08:15:00,65.8,60.2,28.41,WSW,244,0.0,2.0,82,0.00,08:15,,0.00,WeatherDisplay:WD co,2013-04-14 05:15:00,
2013-04-14 08:20:00,66.2,60.5,28.40,South,185,0.0,0.0,82,0.00,08:20,,0.00,WeatherDisplay:WD co,2013-04-14 05:20:00,
2013-04-14 08:30:00,67.1,61.1,28.41,SSE,148,0.0,0.0,81,0.00,08:30,,0.00,WeatherDisplay:WD co,2013-04-14 05:30:00,
2013-04-14 08:35:00,68.4,61.9,28.41,SE,135,0.0,0.0,80,0.00,08:35,,0.00,WeatherDisplay:WD co,2013-04-14 05:35:00,
2013-04-14 08:40:00,68.9,62.1,28.41,SE,135,0.0,0.0,79,0.00,08:40,,0.00,WeatherDisplay:WD co,2013-04-14 05:40:00,
2013-04-14 08:45:00,69.4,61.9,28.41,SE,135,0.0,0.0,77,0.00,08:45,,0.00,WeatherDisplay:WD co,2013-04-14 05:45:00,
2013-04-14 08:50:00,70.0,61.7,28.41,SSE,152,0.0,1.0,75,0.00,08:50,,0.00,WeatherDisplay:WD co,2013-04-14 05:50:00,
2013-04-14 08:55:00,70.3,61.7,28.41,WSW,240,0.0,0.0,74,0.00,08:55,,0.00,WeatherDisplay:WD co,2013-04-14 05:55:00,
2013-04-14 09:05:00,71.1,60.8,28.41,SSW,202,0.0,1.0,70,0.00,09:05,,0.00,WeatherDisplay:WD co,2013-04-14 06:05:00,
2013-04-14 09:10:00,71.6,60.9,28.41,SW,218,0.0,2.0,69,0.00,09:10,,0.00,WeatherDisplay:WD co,2013-04-14 06:10:00,
2013-04-14 09:15:00,72.1,61.4,28.41,SSW,197,0.0,0.0,69,0.00,09:15,,0.00,WeatherDisplay:WD co,2013-04-14 06:15:00,
2013-04-14 09:20:00,72.0,61.2,28.41,South,180,0.0,1.0,69,0.00,09:20,,0.00,WeatherDisplay:WD co,2013-04-14 06:20:00,
2013-04-14 09:25:00,72.5,61.7,28.41,South,180,0.0,1.0,69,0.00,09:25,,0.00,WeatherDisplay:WD co,2013-04-14 06:25:00,
2013-04-14 09:30:00,72.9,61.7,28.41,South,176,0.0,1.0,68,0.00,09:30,,0.00,WeatherDisplay:WD co,2013-04-14 06:30:00,
2013-04-14 09:35:00,73.8,62.5,28.41,South,180,0.0,1.0,68,0.00,09:35,,0.00,WeatherDisplay:WD co,2013-04-14 06:35:00,
2013-04-14 09:40:00,76.3,64.9,28.41,SSW,212,0.0,0.0,68,0.00,09:40,,0.00,WeatherDisplay:WD co,2013-04-14 06:40:00,
2013-04-14 09:45:00,78.4,64.3,28.41,SW,214,1.0,2.0,62,0.00,09:45,,0.00,WeatherDisplay:WD co,2013-04-14 06:45:00,
2013-04-14 09:50:00,79.5,64.9,28.41,SW,215,0.0,2.0,61,0.00,09:50,,0.00,WeatherDisplay:WD co,2013-04-14 06:50:00,
2013-04-14 09:55:00,79.7,64.1,28.41,South,176,0.0,3.0,59,0.00,09:55,,0.00,WeatherDisplay:WD co,2013-04-14 06:55:00,
2013-04-14 10:05:00,79.7,64.6,28.41,East,93,1.0,4.0,60,0.00,10:05,,0.00,WeatherDisplay:WD co,2013-04-14 07:05:00,
2013-04-14 10:10:00,80.6,62.9,28.40,NE,40,1.0,4.0,55,0.00,10:10,,0.00,WeatherDisplay:WD co,2013-04-14 07:10:00,
2013-04-14 10:15:00,81.5,62.2,28.41,North,0,1.0,4.0,52,0.00,10:15,,0.00,WeatherDisplay:WD co,2013-04-14 07:15:00,
2013-04-14 10:20:00,81.7,62.3,28.41,NE,37,2.0,5.0,52,0.00,10:20,,0.00,WeatherDisplay:WD co,2013-04-14 07:20:00,
2013-04-14 10:25:00,81.7,61.2,28.41,NE,37,1.0,4.0,50,0.00,10:25,,0.00,WeatherDisplay:WD co,2013-04-14 07:25:00,
2013-04-14 10:30:00,82.4,61.3,28.41,NE,38,1.0,4.0,49,0.00,10:30,,0.00,WeatherDisplay:WD co,2013-04-14 07:30:00,
2013-04-14 10:40:00,81.7,60.7,28.40,South,169,1.0,6.0,49,0.00,10:40,,0.00,WeatherDisplay:WD co,2013-04-14 07:40:00,
2013-04-14 10:45:00,81.1,61.3,28.39,NE,38,0.0,7.0,51,0.00,10:45,,0.00,WeatherDisplay:WD co,2013-04-14 07:45:00,
2013-04-14 10:50:00,81.0,60.6,28.40,NE,34,3.0,5.0,50,0.00,10:50,,0.00,WeatherDisplay:WD co,2013-04-14 07:50:00,
2013-04-14 10:55:00,80.6,60.2,28.39,NE,48,1.0,6.0,50,0.00,10:55,,0.00,WeatherDisplay:WD co,2013-04-14 07:55:00,
2013-04-14 11:00:00,81.1,60.2,28.39,NNE,29,1.0,5.0,49,0.00,11:00,,0.00,WeatherDisplay:WD co,2013-04-14 08:00:00,
2013-04-14 11:05:00,81.9,60.8,28.40,NNE,27,2.0,8.0,49,0.00,11:05,,0.00,WeatherDisplay:WD co,2013-04-14 08:05:00,
2013-04-14 11:10:00,81.5,60.5,28.39,WNW,295,2.0,6.0,49,0.00,11:10,,0.00,WeatherDisplay:WD co,2013-04-14 08:10:00,
2013-04-14 11:15:00,82.0,61.0,28.39,West,265,1.0,4.0,49,0.00,11:15,,0.00,WeatherDisplay:WD co,2013-04-14 08:15:00,
2013-04-14 11:20:00,82.8,61.1,28.39,WSW,240,1.0,6.0,48,0.00,11:20,,0.00,WeatherDisplay:WD co,2013-04-14 08:20:00,
2013-04-14 11:25:00,83.3,61.6,28.40,West,270,0.0,8.0,48,0.00,11:25,,0.00,WeatherDisplay:WD co,2013-04-14 08:25:00,
2013-04-14 11:30:00,83.7,61.9,28.39,North,352,1.0,5.0,48,0.00,11:30,,0.00,WeatherDisplay:WD co,2013-04-14 08:30:00,
2013-04-14 11:35:00,84.0,61.6,28.39,NNW,342,1.0,4.0,47,0.00,11:35,,0.00,WeatherDisplay:WD co,2013-04-14 08:35:00,
2013-04-14 11:40:00,84.4,61.9,28.39,West,277,1.0,3.0,47,0.00,11:40,,0.00,WeatherDisplay:WD co,2013-04-14 08:40:00,
2013-04-14 11:50:00,84.7,62.3,28.39,SSW,207,1.0,9.0,47,0.00,11:50,,0.00,WeatherDisplay:WD co,2013-04-14 08:50:00,
2013-04-14 11:55:00,85.1,62.6,28.39,SW,221,1.0,4.0,47,0.00,11:55,,0.00,WeatherDisplay:WD co,2013-04-14 08:55:00,
2013-04-14 12:00:00,85.1,62.0,28.39,SSE,162,1.0,6.0,46,0.00,12:00,,0.00,WeatherDisplay:WD co,2013-04-14 09:00:00,
2013-04-14 12:05:00,85.5,62.3,28.39,NNW,331,1.0,4.0,46,0.00,12:05,,0.00,WeatherDisplay:WD co,2013-04-14 09:05:00,
2013-04-14 12:10:00,85.8,62.6,28.39,North,359,0.0,6.0,46,0.00,12:10,,0.00,WeatherDisplay:WD co,2013-04-14 09:10:00,
2013-04-14 12:15:00,85.6,62.5,28.39,West,274,2.0,7.0,46,0.00,12:15,,0.00,WeatherDisplay:WD co,2013-04-14 09:15:00,
2013-04-14 12:20:00,86.0,62.8,28.38,NE,38,2.0,8.0,46,0.00,12:20,,0.00,WeatherDisplay:WD co,2013-04-14 09:20:00,
2013-04-14 12:30:00,85.8,62.6,28.38,East,96,1.0,6.0,46,0.00,12:30,,0.00,WeatherDisplay:WD co,2013-04-14 09:30:00,
2013-04-14 12:35:00,84.0,61.6,28.38,ENE,66,1.0,8.0,47,0.00,12:35,,0.00,WeatherDisplay:WD co,2013-04-14 09:35:00,
2013-04-14 12:40:00,84.6,60.9,28.38,NE,44,1.0,4.0,45,0.00,12:40,,0.00,WeatherDisplay:WD co,2013-04-14 09:40:00,
2013-04-14 12:45:00,84.2,60.6,28.38,SSE,151,1.0,5.0,45,0.00,12:45,,0.00,WeatherDisplay:WD co,2013-04-14 09:45:00,
2013-04-14 12:50:00,83.8,60.8,28.38,SSE,155,1.0,8.0,46,0.00,12:50,,0.00,WeatherDisplay:WD co,2013-04-14 09:50:00,
2013-04-14 12:55:00,83.1,60.2,28.38,ENE,59,2.0,7.0,46,0.00,12:55,,0.00,WeatherDisplay:WD co,2013-04-14 09:55:00,
2013-04-14 13:00:00,83.3,60.4,28.38,ENE,66,1.0,7.0,46,0.00,13:00,,0.00,WeatherDisplay:WD co,2013-04-14 10:00:00,
2013-04-14 13:05:00,83.3,60.4,28.38,East,90,1.0,6.0,46,0.00,13:05,,0.00,WeatherDisplay:WD co,2013-04-14 10:05:00,
2013-04-14 13:10:00,82.9,60.0,28.38,NE,45,2.0,9.0,46,0.00,13:10,,0.00,WeatherDisplay:WD co,2013-04-14 10:10:00,
2013-04-14 13:15:00,82.8,59.9,28.38,North,356,1.0,4.0,46,0.00,13:15,,0.00,WeatherDisplay:WD co,2013-04-14 10:15:00,
2013-04-14 13:20:00,82.6,60.3,28.38,SE,133,1.0,5.0,47,0.00,13:20,,0.00,WeatherDisplay:WD co,2013-04-14 10:20:00,
2013-04-14 13:25:00,82.8,60.5,28.37,NE,35,1.0,5.0,47,0.00,13:25,,0.00,WeatherDisplay:WD co,2013-04-14 10:25:00,
2013-04-14 13:30:00,82.2,60.0,28.38,ENE,57,5.0,10.0,47,0.00,13:30,,0.00,WeatherDisplay:WD co,2013-04-14 10:30:00,
2013-04-14 13:35:00,82.2,60.0,28.38,NNE,33,5.0,10.0,47,0.00,13:35,,0.00,WeatherDisplay:WD co,2013-04-14 10:35:00,
2013-04-14 13:40:00,80.8,59.3,28.37,NNE,21,1.0,11.0,48,0.00,13:40,,0.00,WeatherDisplay:WD co,2013-04-14 10:40:00,
2013-04-14 13:45:00,81.0,60.0,28.37,NE,36,1.0,8.0,49,0.00,13:45,,0.00,WeatherDisplay:WD co,2013-04-14 10:45:00,
2013-04-14 13:50:00,81.7,59.5,28.37,ENE,67,2.0,8.0,47,0.00,13:50,,0.00,WeatherDisplay:WD co,2013-04-14 10:50:00,
2013-04-14 13:55:00,81.9,59.7,28.36,SSE,158,3.0,7.0,47,0.00,13:55,,0.00,WeatherDisplay:WD co,2013-04-14 10:55:00,
2013-04-14 14:00:00,81.7,59.5,28.36,ENE,63,1.0,8.0,47,0.00,14:00,,0.00,WeatherDisplay:WD co,2013-04-14 11:00:00,
2013-04-14 14:05:00,82.0,59.2,28.35,NE,40,3.0,5.0,46,0.00,14:05,,0.00,WeatherDisplay:WD co,2013-04-14 11:05:00,
2013-04-14 14:15:00,82.4,59.5,28.36,NNE,30,1.0,11.0,46,0.00,14:15,,0.00,WeatherDisplay:WD co,2013-04-14 11:15:00,
2013-04-14 14:20:00,82.8,59.3,28.36,NE,50,2.0,8.0,45,0.00,14:20,,0.00,WeatherDisplay:WD co,2013-04-14 11:20:00,
2013-04-14 14:25:00,82.9,60.0,28.35,North,11,1.0,7.0,46,0.00,14:25,,0.00,WeatherDisplay:WD co,2013-04-14 11:25:00,
2013-04-14 14:30:00,83.5,59.9,28.35,SSW,208,2.0,8.0,45,0.00,14:30,,0.00,WeatherDisplay:WD co,2013-04-14 11:30:00,
2013-04-14 14:35:00,83.3,59.1,28.35,South,173,1.0,9.0,44,0.00,14:35,,0.00,WeatherDisplay:WD co,2013-04-14 11:35:00,
2013-04-14 14:40:00,81.9,59.1,28.36,ESE,102,5.0,10.0,46,0.00,14:40,,0.00,WeatherDisplay:WD co,2013-04-14 11:40:00,
2013-04-14 14:45:00,81.1,59.6,28.35,ESE,108,2.0,8.0,48,0.00,14:45,,0.00,WeatherDisplay:WD co,2013-04-14 11:45:00,
2013-04-14 14:50:00,80.8,59.8,28.36,NNE,22,2.0,8.0,49,0.00,14:50,,0.00,WeatherDisplay:WD co,2013-04-14 11:50:00,
2013-04-14 14:55:00,80.8,59.3,28.36,NNE,27,1.0,5.0,48,0.00,14:55,,0.00,WeatherDisplay:WD co,2013-04-14 11:55:00,
2013-04-14 15:00:00,80.6,58.5,28.35,NE,44,5.0,9.0,47,0.00,15:00,,0.00,WeatherDisplay:WD co,2013-04-14 12:00:00,
2013-04-14 15:05:00,79.9,59.0,28.36,ENE,61,5.0,12.0,49,0.00,15:05,,0.00,WeatherDisplay:WD co,2013-04-14 12:05:00,
2013-04-14 15:10:00,79.7,58.8,28.36,NE,45,2.0,11.0,49,0.00,15:10,,0.00,WeatherDisplay:WD co,2013-04-14 12:10:00,
2013-04-14 15:15:00,79.7,59.4,28.35,NE,48,3.0,11.0,50,0.00,15:15,,0.00,WeatherDisplay:WD co,2013-04-14 12:15:00,
2013-04-14 15:20:00,79.9,59.6,28.35,ENE,68,3.0,9.0,50,0.00,15:20,,0.00,WeatherDisplay:WD co,2013-04-14 12:20:00,
2013-04-14 15:25:00,79.9,59.6,28.35,East,82,1.0,11.0,50,0.00,15:25,,0.00,WeatherDisplay:WD co,2013-04-14 12:25:00,
2013-04-14 15:30:00,79.9,59.6,28.35,ESE,121,5.0,16.0,50,0.00,15:30,,0.00,WeatherDisplay:WD co,2013-04-14 12:30:00,
2013-04-14 15:35:00,79.7,59.4,28.35,ENE,69,3.0,12.0,50,0.00,15:35,,0.00,WeatherDisplay:WD co,2013-04-14 12:35:00,
2013-04-14 15:40:00,80.1,59.7,28.35,NE,45,3.0,9.0,50,0.00,15:40,,0.00,WeatherDisplay:WD co,2013-04-14 12:40:00,
2013-04-14 15:45:00,80.1,59.7,28.35,NNE,25,2.0,8.0,50,0.00,15:45,,0.00,WeatherDisplay:WD co,2013-04-14 12:45:00,
2013-04-14 15:50:00,80.8,59.8,28.35,NE,46,1.0,10.0,49,0.00,15:50,,0.00,WeatherDisplay:WD co,2013-04-14 12:50:00,
2013-04-14 15:55:00,81.1,60.2,28.35,ESE,112,2.0,9.0,49,0.00,15:55,,0.00,WeatherDisplay:WD co,2013-04-14 12:55:00,
2013-04-14 16:00:00,81.5,59.9,28.35,East,85,2.0,8.0,48,0.00,16:00,,0.00,WeatherDisplay:WD co,2013-04-14 13:00:00,
2013-04-14 16:05:00,81.9,60.2,28.35,East,82,5.0,10.0,48,0.00,16:05,,0.00,WeatherDisplay:WD co,2013-04-14 13:05:00,
2013-04-14 16:10:00,81.1,59.6,28.35,SSE,156,3.0,8.0,48,0.00,16:10,,0.00,WeatherDisplay:WD co,2013-04-14 13:10:00,
2013-04-14 16:15:00,80.4,59.5,28.35,East,79,6.0,15.0,49,0.00,16:15,,0.00,WeatherDisplay:WD co,2013-04-14 13:15:00,
2013-04-14 16:20:00,79.2,59.5,28.35,NE,38,3.0,17.0,51,0.00,16:20,,0.00,WeatherDisplay:WD co,2013-04-14 13:20:00,
2013-04-14 16:25:00,78.6,59.0,28.36,NNE,23,2.0,9.0,51,0.00,16:25,,0.00,WeatherDisplay:WD co,2013-04-14 13:25:00,
2013-04-14 16:30:00,78.8,59.7,28.35,NNE,25,3.0,12.0,52,0.00,16:30,,0.00,WeatherDisplay:WD co,2013-04-14 13:30:00,
2013-04-14 16:35:00,79.2,60.0,28.35,NNE,28,3.0,11.0,52,0.00,16:35,,0.00,WeatherDisplay:WD co,2013-04-14 13:35:00,
2013-04-14 16:40:00,78.4,59.9,28.35,North,11,7.0,15.0,53,0.00,16:40,,0.00,WeatherDisplay:WD co,2013-04-14 13:40:00,
2013-04-14 16:45:00,78.1,59.6,28.35,NE,40,1.0,12.0,53,0.00,16:45,,0.00,WeatherDisplay:WD co,2013-04-14 13:45:00,
2013-04-14 16:50:00,77.5,58.5,28.35,NNE,21,6.0,13.0,52,0.00,16:50,,0.00,WeatherDisplay:WD co,2013-04-14 13:50:00,
2013-04-14 16:55:00,76.6,58.2,28.35,NE,40,2.0,13.0,53,0.00,16:55,,0.00,WeatherDisplay:WD co,2013-04-14 13:55:00,
2013-04-14 17:00:00,75.7,57.9,28.35,NNE,32,3.0,11.0,54,0.00,17:00,,0.00,WeatherDisplay:WD co,2013-04-14 14:00:00,
2013-04-14 17:05:00,75.0,58.3,28.35,NE,35,5.0,18.0,56,0.00,17:05,,0.00,WeatherDisplay:WD co,2013-04-14 14:05:00,
2013-04-14 17:10:00,74.7,58.9,28.35,NE,51,6.0,11.0,58,0.00,17:10,,0.00,WeatherDisplay:WD co,2013-04-14 14:10:00,
2013-04-14 17:15:00,74.1,58.9,28.36,NE,34,6.0,14.0,59,0.00,17:15,,0.00,WeatherDisplay:WD co,2013-04-14 14:15:00,
2013-04-14 17:20:00,73.8,59.5,28.36,NNE,32,9.0,21.0,61,0.00,17:20,,0.00,WeatherDisplay:WD co,2013-04-14 14:20:00,
2013-04-14 17:30:00,73.9,60.1,28.37,NE,39,8.0,12.0,62,0.00,17:30,,0.00,WeatherDisplay:WD co,2013-04-14 14:30:00,
2013-04-14 17:35:00,74.5,61.1,28.37,NE,46,2.0,10.0,63,0.00,17:35,,0.00,WeatherDisplay:WD co,2013-04-14 14:35:00,
2013-04-14 17:40:00,73.8,61.3,28.38,NE,46,7.0,15.0,65,0.00,17:40,,0.00,WeatherDisplay:WD co,2013-04-14 14:40:00,
2013-04-14 17:45:00,72.0,60.8,28.38,NE,37,6.0,15.0,68,0.00,17:45,,0.00,WeatherDisplay:WD co,2013-04-14 14:45:00,
2013-04-14 17:50:00,70.3,60.5,28.38,ENE,63,7.0,19.0,71,0.00,17:50,,0.00,WeatherDisplay:WD co,2013-04-14 14:50:00,
2013-04-14 17:55:00,69.6,60.2,28.38,NE,45,3.0,13.0,72,0.00,17:55,,0.00,WeatherDisplay:WD co,2013-04-14 14:55:00,
2013-04-14 18:00:00,68.7,59.7,28.38,East,81,3.0,15.0,73,0.00,18:00,,0.00,WeatherDisplay:WD co,2013-04-14 15:00:00,
2013-04-14 18:05:00,68.4,59.7,28.39,East,90,8.0,18.0,74,0.00,18:05,,0.00,WeatherDisplay:WD co,2013-04-14 15:05:00,
2013-04-14 18:15:00,67.8,58.8,28.39,NE,42,8.0,19.0,73,0.00,18:15,,0.00,WeatherDisplay:WD co,2013-04-14 15:15:00,
2013-04-14 18:25:00,66.6,57.6,28.40,NE,38,6.0,17.0,73,0.00,18:25,,0.00,WeatherDisplay:WD co,2013-04-14 15:25:00,
2013-04-14 18:30:00,66.4,57.8,28.41,NNE,19,3.0,17.0,74,0.00,18:30,,0.00,WeatherDisplay:WD co,2013-04-14 15:30:00,
2013-04-14 18:35:00,66.2,57.3,28.41,NE,37,7.0,20.0,73,0.00,18:35,,0.00,WeatherDisplay:WD co,2013-04-14 15:35:00,
2013-04-14 18:45:00,65.8,56.9,28.42,NE,42,5.0,12.0,73,0.00,18:45,,0.00,WeatherDisplay:WD co,2013-04-14 15:45:00,
2013-04-14 18:50:00,65.7,56.8,28.41,WSW,240,1.0,14.0,73,0.00,18:50,,0.00,WeatherDisplay:WD co,2013-04-14 15:50:00,
2013-04-14 18:55:00,65.8,56.6,28.41,North,353,15.0,21.0,72,0.00,18:55,,0.00,WeatherDisplay:WD co,2013-04-14 15:55:00,
2013-04-14 19:00:00,65.7,56.8,28.41,NNE,20,5.0,16.0,73,0.00,19:00,,0.00,WeatherDisplay:WD co,2013-04-14 16:00:00,
2013-04-14 19:10:00,65.7,56.4,28.41,NE,39,5.0,11.0,72,0.00,19:10,,0.00,WeatherDisplay:WD co,2013-04-14 16:10:00,
2013-04-14 19:15:00,65.7,56.0,28.41,East,91,1.0,12.0,71,0.00,19:15,,0.00,WeatherDisplay:WD co,2013-04-14 16:15:00,
2013-04-14 19:20:00,65.7,56.0,28.41,East,91,1.0,12.0,71,0.00,19:15,,0.00,WeatherDisplay:WD co,2013-04-14 16:20:00,
2013-04-14 23:05:00,63.5,53.5,28.41,ESE,105,1.0,4.0,70,0.00,23:05,,0.00,WeatherDisplay:WD co,2013-04-14 20:05:00,
2013-04-14 23:15:00,63.5,53.1,28.42,NE,40,2.0,8.0,69,0.00,23:15,,0.00,WeatherDisplay:WD co,2013-04-14 20:15:00,
2013-04-14 23:20:00,63.3,53.0,28.42,NE,45,1.0,6.0,69,0.00,23:20,,0.00,WeatherDisplay:WD co,2013-04-14 20:20:00,
2013-04-14 23:30:00,63.3,53.0,28.42,NE,35,1.0,4.0,69,0.00,23:30,,0.00,WeatherDisplay:WD co,2013-04-14 20:30:00,
2013-04-14 23:35:00,63.1,52.8,28.42,ENE,62,1.0,4.0,69,0.00,23:35,,0.00,WeatherDisplay:WD co,2013-04-14 20:35:00,
2013-04-14 23:40:00,63.1,52.8,28.42,NE,43,2.0,6.0,69,0.00,23:40,,0.00,WeatherDisplay:WD co,2013-04-14 20:40:00,
2013-04-14 23:50:00,63.0,53.0,28.42,ENE,67,0.0,5.0,70,0.00,23:50,,0.00,WeatherDisplay:WD co,2013-04-14 20:50:00,
2013-04-14 23:55:00,63.0,53.0,28.42,NE,54,1.0,4.0,70,0.00,23:55,,0.00,WeatherDisplay:WD co,2013-04-14 20:55:00,